Погода в Кулое

Россия / Архангельская область     61°01′44″N   42°30′08″E
темп.,
°C
ветер,
м/с
пор.,
м/с
влажн.,
%
обл.,
%
осадки,
мм/ч
давл.,
гПа
погр.,
м
23 апреля, пт
пт2300:00+4ююз399688 0.3 1015296
03:00+4ю389458 0.3 1015217
06:00+4ююв38935 0.0 1016223
09:00+10ююв487195 0.0 1016613
12:00+14ю595370 0.2 10151752
15:00+15ю595148 0.4 10141736
18:00+14ююв5116049 0.3 10131274
21:00+11ююв51471100 0.6 1014684
24 апреля, сб
сб2400:00+9ююв5137698 0.2 1014557
03:00+7юв4138544 0.2 1013448
06:00+8юв4138584 0.0 1013510
09:00+12юв511595 0.0 10121154
12:00+15ююв61043100 0.2 10102497
15:00+14юв5104964 0.4 10091883
18:00+12юв6115370 0.2 10081603
21:00+9вюв51165100 0.2 1008981
25 апреля, вс
вс2500:00+8вюв41173100 0.0 1006808
03:00+7в4978100 0.0 1005838
06:00+6в4992100 1.0 10031026
09:00+6в4894100 2.1 1002992
12:00+6в4793100 0.8 10011040
15:00+6в3694100 1.6 10011027
18:00+5в3695100 1.3 1001948
21:00+5всв2497100 2.8 1001810
26 апреля, пн
пн2600:00+4св2398100 0.8 1000745
03:00+4св1498100 1.6 1000306
06:00+4св1293100 0.2 1001119
09:00+5зюз0189100 0.3 1001502
12:00+3зюз4798100 0.3 1003439
15:00+2зюз41097100 0.8 1004505
18:00+2зюз41197100 0.7 1004634
21:00+2зюз41096100 0.9 1005825
27 апреля, вт
вт2700:00+2зюз4991100 0.1 1004877
03:00+2зюз4989100 0.1 1004761
06:00+1зюз3109798 0.2 1004645
09:00+3зюз4988100 0.4 1004951
12:00+4зюз5987100 0.6 1004967
15:00+4з498499 1.2 10041063
18:00+3з498987 0.4 1005835
21:00+2зюз3897100 0.6 1005520